Temp
18 19 20 19 18 18 17 17 16 16 16 15 15 15 15 15 14 14 14 14 14 14 14 14 14 15 14 14 14 14 14 14 14 15 15 15 15 15 15 15 13 12 12
20 19 19 19 19 18 17 17 17 16 16 16 15 14 15 14 14 14 14 14 14 15 15 14 14 15 15 15 15 14 14 14 14 14 14 14 14 14 14 14 14 12 13
20 18 18 18 18 18 17 16 16 16 16 16 15 15 14 14 14 14 14 14 15 15 14 14 14 14 14 14 14 13 14 14 14 13 13 13 13 13 13 14 14 13 13
20 18 18 18 18 18 17 17 17 17 16 15 14 15 14 13 13 14 14 14 14 14 15 14 14 14 14 14 14 14 14 14 13 13 12 12 13 13 13 14 14 13 12
19 19 18 18 18 17 17 18 17 17 16 15 14 14 13 13 13 14 14 14 14 14 14 15 15 15 15 15 15 14 14 13 13 13 12 12 12 12 13 13 13 14 13
19 18 18 18 18 17 17 17 17 17 16 15 14 14 14 13 14 14 14 14 14 14 14 15 15 15 15 14 14 14 14 14 13 12 13 12 12 12 12 13 13 13 13
18 18 18 18 17 17 17 18 17 18 16 15 14 14 14 14 14 13 14 14 14 15 15 15 15 14 14 14 14 14 13 13 13 13 12 12 12 12 12 13 13 13 13
18 18 17 18 17 17 17 18 17 17 17 16 15 14 14 14 14 14 14 14 15 15 15 15 15 14 14 14 13 13 13 13 12 12 12 12 12 12 13 12 12 13 13
18 18 17 17 17 17 17 18 18 18 17 16 15 14 14 14 14 14 14 15 15 15 15 15 14 14 14 13 13 13 13 12 12 12 12 12 12 12 13 13 12 11 12
18 18 18 17 17 17 17 17 17 18 19 17 15 15 15 15 14 14 14 15 15 15 15 14 14 14 13 13 13 13 13 12 12 12 12 12 12 12 12 12 12 11 11
18 18 18 17 17 16 16 16 16 17 17 18 16 15 15 15 15 14 14 14 15 14 14 14 14 13 13 13 13 13 13 12 12 12 12 12 12 11 11 10 11 11 10
18 18 17 17 17 16 16 16 16 16 16 16 16 16 15 14 15 14 14 14 14 14 14 13 13 13 13 13 12 13 13 13 13 12 12 12 11 10 10 9 10 10 9
18 18 17 17 17 16 16 16 15 16 16 16 16 16 15 15 15 14 14 14 14 13 13 13 13 13 13 13 13 13 13 13 13 12 11 11 10 9 8 10 10 10 9
18 18 17 17 16 17 16 15 15 15 16 16 16 14 14 14 14 14 14 13 13 13 13 13 13 13 13 13 13 13 13 12 12 12 11 11 10 10 10 10 10 9 9
19 19 18 17 17 17 17 16 15 14 15 15 15 14 14 14 14 14 13 13 13 12 12 12 12 12 13 13 13 13 12 11 11 11 10 10 10 9 9 9 9 9 9
20 19 19 18 17 17 17 16 15 14 15 15 14 13 13 14 14 14 13 12 12 12 12 12 12 12 13 13 13 13 12 11 11 11 10 10 9 9 9 9 9 9 9
20 20 19 18 17 17 17 16 15 14 14 15 14 14 14 14 13 13 12 12 12 13 12 12 12 13 13 13 13 13 12 11 10 10 9 9 9 9 9 9 9 9 9
20 20 20 19 18 18 17 16 15 15 14 15 14 14 14 14 13 13 13 13 13 12 12 12 12 13 13 13 12 12 12 11 10 9 9 8 9 9 9 9 8 9 9
20 20 20 20 19 19 18 16 16 15 15 15 15 14 14 14 13 13 13 12 12 12 12 11 12 12 12 12 12 12 11 11 10 9 8 8 7 7 7 7 8 8 8
19 19 20 19 19 19 19 17 17 16 16 15 15 15 14 14 13 13 12 12 12 12 11 12 12 12 12 12 12 11 10 10 9 8 8 8 8 8 7 7 7 7 6
19 19 20 20 19 19 18 18 17 16 15 15 15 15 14 14 13 13 13 13 12 12 11 12 12 12 11 11 11 11 10 9 9 8 8 7 7 6 6 6 6 5 6
18 19 19 19 19 19 18 18 18 17 15 15 15 14 14 13 13 13 13 13 12 12 12 12 11 11 11 11 11 10 10 9 8 8 7 7 6 6 5 5 5 5 5
18 18 18 19 18 18 18 18 18 17 16 15 15 14 14 13 13 13 13 13 13 12 12 12 11 11 11 10 10 10 9 9 8 7 7 6 6 6 5 5 4 4 4
17 17 18 18 18 18 18 18 18 18 16 16 16 16 14 13 13 12 12 12 13 12 12 11 11 11 10 10 10 9 9 8 8 7 6 6 6 5 5 5 4 4 3
17 17 17 17 18 18 17 18 17 17 17 17 16 16 14 13 12 12 11 11 11 12 11 11 11 10 10 10 9 8 8 7 7 6 6 6 6 5 5 5 4 3 3
16 16 16 17 17 17 17 17 17 17 17 16 16 15 13 13 12 11 11 11 11 11 11 10 10 10 9 9 8 8 7 6 5 4 3 4 4 5 4 4 3 3 1
Height
1515 1516 1518 1520 1522 1523 1525 1527 1528 1530 1531 1533 1534 1534 1535 1535 1536 1536 1536 1536 1536 1537 1537 1539 1539 1538 1539 1540 1541 1543 1543 1544 1544 1544 1544 1543 1543 1543 1542 1541 1540 1541 1541
1514 1516 1518 1519 1521 1523 1525 1526 1527 1529 1530 1531 1533 1534 1535 1535 1536 1537 1536 1536 1536 1536 1537 1539 1540 1541 1541 1541 1543 1543 1543 1543 1543 1543 1542 1542 1542 1542 1543 1542 1541 1541 1541
1514 1516 1518 1520 1521 1523 1525 1526 1527 1528 1529 1530 1532 1534 1535 1535 1536 1536 1536 1536 1536 1536 1537 1538 1540 1541 1542 1543 1543 1542 1542 1542 1543 1543 1543 1542 1542 1543 1542 1542 1541 1541 1541
1514 1515 1517 1519 1521 1522 1524 1526 1527 1528 1528 1530 1532 1534 1535 1536 1536 1537 1537 1536 1536 1537 1537 1539 1540 1541 1542 1542 1542 1542 1542 1542 1543 1544 1543 1542 1543 1544 1543 1542 1542 1541 1541
1513 1515 1517 1518 1520 1522 1523 1525 1526 1527 1528 1530 1532 1533 1535 1536 1537 1538 1538 1537 1537 1537 1538 1539 1539 1541 1541 1542 1542 1542 1543 1543 1544 1544 1544 1544 1544 1543 1544 1543 1542 1541 1541
1513 1515 1517 1518 1520 1522 1523 1524 1526 1527 1528 1529 1531 1533 1534 1535 1537 1538 1538 1538 1538 1539 1539 1539 1540 1540 1541 1542 1543 1544 1543 1544 1545 1545 1544 1544 1544 1544 1543 1542 1542 1542 1541
1511 1514 1516 1518 1520 1522 1523 1524 1525 1526 1527 1529 1531 1533 1534 1536 1537 1537 1538 1538 1538 1539 1540 1540 1541 1542 1542 1542 1543 1544 1544 1544 1544 1544 1544 1544 1544 1543 1542 1542 1541 1541 1540
1511 1514 1516 1518 1520 1521 1522 1523 1525 1526 1527 1528 1529 1532 1534 1536 1537 1537 1537 1538 1538 1539 1540 1541 1541 1542 1542 1543 1543 1543 1543 1543 1544 1542 1542 1543 1542 1541 1540 1540 1540 1539 1539
1511 1513 1515 1517 1519 1521 1522 1523 1525 1526 1526 1528 1530 1532 1534 1536 1536 1536 1537 1538 1538 1539 1540 1541 1542 1542 1542 1542 1543 1543 1542 1543 1542 1542 1541 1541 1541 1540 1539 1538 1538 1538 1537
1511 1513 1514 1515 1517 1519 1521 1523 1524 1525 1526 1528 1530 1531 1533 1534 1536 1536 1537 1538 1539 1539 1540 1541 1541 1542 1542 1542 1542 1542 1542 1541 1541 1540 1540 1539 1539 1538 1537 1537 1536 1535 1536
1509 1511 1513 1514 1515 1517 1519 1521 1523 1524 1526 1527 1529 1531 1533 1534 1535 1536 1537 1538 1538 1539 1540 1541 1541 1540 1541 1540 1541 1540 1541 1540 1539 1539 1539 1538 1537 1536 1536 1536 1534 1534 1534
1506 1508 1510 1513 1514 1516 1518 1519 1521 1523 1524 1526 1528 1529 1531 1533 1534 1535 1536 1537 1538 1538 1539 1540 1540 1540 1540 1539 1539 1538 1539 1537 1537 1536 1536 1537 1535 1534 1534 1533 1532 1532 1533
1506 1506 1507 1510 1512 1514 1515 1517 1519 1521 1523 1526 1528 1529 1530 1531 1532 1534 1535 1536 1537 1538 1537 1538 1538 1539 1539 1537 1538 1536 1536 1534 1534 1533 1535 1534 1533 1532 1531 1531 1531 1530 1531
1502 1504 1505 1507 1509 1511 1512 1514 1516 1519 1521 1523 1525 1527 1528 1529 1529 1532 1533 1534 1535 1536 1537 1537 1537 1537 1537 1535 1536 1535 1534 1531 1531 1531 1532 1531 1532 1531 1529 1530 1530 1530 1529
1500 1501 1502 1504 1506 1507 1509 1511 1513 1515 1518 1520 1523 1523 1526 1527 1528 1530 1531 1531 1533 1533 1535 1536 1536 1536 1534 1534 1534 1532 1531 1529 1530 1529 1529 1529 1530 1529 1528 1528 1529 1528 1528
1495 1497 1499 1500 1502 1505 1506 1509 1510 1512 1515 1518 1519 1521 1524 1525 1526 1526 1528 1530 1531 1531 1532 1533 1534 1534 1532 1532 1530 1530 1529 1528 1528 1527 1527 1527 1528 1527 1525 1526 1526 1527 1526
1493 1493 1494 1496 1497 1499 1502 1505 1507 1509 1512 1515 1517 1519 1522 1523 1523 1524 1526 1528 1530 1531 1531 1531 1531 1531 1531 1530 1528 1527 1527 1527 1526 1526 1525 1526 1526 1525 1524 1524 1524 1525 1524
1487 1489 1490 1491 1493 1494 1498 1501 1503 1505 1508 1510 1515 1517 1518 1519 1520 1522 1524 1526 1527 1528 1530 1529 1529 1528 1528 1527 1526 1525 1525 1525 1524 1524 1524 1525 1524 1523 1523 1523 1522 1522 1521
1480 1483 1485 1486 1486 1489 1491 1496 1498 1501 1505 1507 1510 1513 1515 1516 1518 1520 1522 1523 1524 1525 1526 1527 1527 1526 1526 1525 1524 1523 1523 1522 1522 1523 1523 1523 1522 1521 1521 1520 1520 1519 1518
1474 1476 1480 1481 1481 1483 1487 1489 1494 1498 1502 1504 1507 1509 1510 1512 1515 1517 1518 1520 1521 1522 1524 1524 1525 1524 1524 1524 1523 1522 1521 1520 1520 1521 1521 1520 1520 1520 1519 1518 1518 1517 1515
1468 1470 1472 1475 1475 1476 1480 1483 1489 1490 1495 1498 1502 1504 1505 1508 1511 1512 1514 1516 1517 1519 1520 1521 1522 1522 1522 1522 1521 1520 1519 1519 1519 1518 1519 1519 1518 1516 1516 1515 1515 1513 1512
1461 1463 1465 1467 1469 1469 1471 1475 1480 1486 1489 1492 1494 1498 1500 1504 1507 1508 1510 1511 1513 1515 1516 1518 1519 1520 1521 1520 1520 1519 1518 1519 1518 1517 1517 1516 1516 1515 1514 1513 1512 1510 1507
1452 1455 1458 1460 1463 1464 1465 1467 1471 1476 1481 1486 1488 1491 1494 1498 1501 1504 1506 1508 1509 1511 1513 1515 1516 1517 1518 1518 1517 1517 1516 1516 1515 1515 1514 1513 1513 1513 1512 1510 1508 1506 1503
1444 1448 1451 1454 1456 1459 1457 1458 1461 1465 1471 1475 1480 1482 1487 1493 1495 1499 1502 1504 1505 1508 1510 1511 1513 1514 1515 1515 1515 1514 1514 1514 1513 1512 1512 1511 1510 1510 1509 1507 1505 1502 1499
1438 1441 1444 1446 1448 1451 1451 1452 1455 1460 1465 1470 1474 1478 1481 1486 1489 1493 1497 1501 1502 1504 1506 1508 1509 1510 1511 1511 1511 1511 1511 1510 1509 1509 1506 1506 1506 1505 1504 1502 1499 1497 1494
1432 1433 1435 1437 1439 1441 1442 1446 1448 1451 1457 1464 1469 1471 1474 1478 1484 1488 1493 1497 1500 1502 1503 1505 1505 1507 1508 1508 1507 1507 1507 1506 1505 1505 1503 1500 1498 1495 1495 1495 1493 1491 1488
Wind_Speed
15 15 14 17 17 17 15 13 11 10 9 9 7 5 3 3 2 2 3 1 0 1 2 11 8 15 11 12 5 2 2 1 3 4 4 3 6 9 9 6 4 4 2
16 19 19 19 19 17 16 14 11 9 8 9 9 8 5 6 5 3 4 4 5 6 7 12 13 10 10 8 5 2 3 3 3 4 4 4 6 9 9 6 4 3 4
18 21 21 20 19 17 15 12 10 8 8 9 10 11 10 8 6 3 8 10 10 9 10 14 11 11 8 4 3 2 3 4 8 8 6 6 7 9 10 6 4 4 5
18 22 22 20 17 16 14 11 9 10 12 16 15 14 11 9 7 9 11 13 13 13 13 11 9 6 4 2 0 3 6 10 10 8 10 8 9 8 9 7 6 5 3
18 21 21 19 16 15 13 11 10 11 12 15 16 15 11 8 7 9 11 12 12 13 13 12 10 9 8 7 8 9 10 10 9 10 11 6 7 7 9 6 7 6 4
16 19 20 18 15 14 13 11 10 11 12 13 13 12 13 15 12 9 10 10 11 11 11 11 10 10 10 10 10 10 10 8 9 8 5 4 5 5 8 6 7 6 6
15 19 17 16 15 14 12 11 10 10 12 12 13 16 15 14 11 9 8 9 9 9 9 9 10 10 10 9 8 7 6 7 7 6 1 1 4 5 6 3 3 2 2
13 15 15 15 15 14 12 10 9 10 11 13 15 15 12 11 8 7 7 7 8 8 8 8 9 8 7 7 6 6 6 6 6 4 2 5 6 7 6 4 5 4 4
17 16 16 15 16 14 11 10 9 9 11 14 15 14 12 10 8 8 8 6 7 7 7 7 6 5 5 5 5 6 6 7 3 1 3 4 6 8 6 5 3 2 4
19 17 15 20 20 17 14 11 10 10 9 12 14 13 12 10 8 9 8 6 6 6 5 5 4 3 3 4 5 3 3 3 2 2 6 6 8 8 7 4 3 2 4
20 19 15 21 21 18 16 14 12 11 12 12 14 14 12 10 9 7 6 6 5 5 4 3 2 1 1 1 2 2 1 2 6 7 8 9 8 5 4 2 3 5 5
23 20 18 16 20 18 17 16 15 13 13 14 14 13 13 11 10 8 7 5 5 5 4 3 2 0 1 3 4 6 5 6 9 10 10 9 8 5 2 4 6 6 6
24 20 20 17 15 16 18 17 17 15 13 13 13 13 14 14 11 8 7 6 6 6 5 4 2 1 3 4 5 8 9 9 9 10 10 9 5 4 3 5 5 4 6
24 23 23 20 19 16 15 18 14 16 14 14 15 13 15 13 10 10 9 9 8 6 6 4 3 4 5 6 7 8 9 10 10 9 10 8 7 7 6 5 5 5 6
26 24 27 25 23 21 19 18 18 18 17 11 16 14 13 12 14 15 13 11 9 8 7 6 6 7 7 7 9 9 7 8 9 9 9 8 5 5 5 5 6 6 8
21 28 25 28 27 26 24 22 21 22 17 14 15 15 14 14 14 16 15 14 12 12 9 7 8 8 8 8 8 6 5 5 7 8 9 7 6 5 5 6 7 8 9
21 19 30 28 28 30 30 26 25 24 21 20 19 19 17 14 15 18 17 18 15 13 10 9 8 8 8 7 6 5 4 4 7 8 9 8 7 6 6 6 8 9 12
25 26 27 30 30 29 32 33 28 26 27 23 25 24 21 21 19 19 20 19 16 13 10 10 9 7 6 5 5 6 5 4 5 8 9 10 8 8 8 9 11 12 13
36 30 29 32 34 32 31 33 33 28 26 30 27 26 25 24 22 21 22 20 17 13 11 10 9 6 4 4 5 5 5 6 4 6 8 8 9 10 10 12 13 14 14
35 38 32 35 38 37 32 32 32 30 27 26 28 30 30 30 24 23 21 19 15 13 13 12 8 5 3 2 3 4 3 2 2 4 8 8 9 10 14 16 16 14 18
35 34 38 33 39 41 39 36 33 34 33 30 32 32 32 29 28 26 22 20 18 16 15 12 9 5 2 2 2 3 0 2 2 3 4 6 12 13 17 17 18 20 22
27 31 36 37 31 41 42 39 35 35 36 36 35 34 32 29 27 30 23 23 18 18 16 13 9 6 3 1 2 1 1 3 3 4 6 9 9 13 14 16 19 23 26
33 30 35 37 30 37 43 44 40 37 39 41 39 36 34 31 32 31 27 21 19 17 16 14 10 7 3 1 3 3 1 2 6 6 7 9 12 13 15 17 20 25 26
32 29 33 32 37 30 45 46 44 44 44 47 43 40 36 34 35 32 28 26 20 19 18 14 10 7 4 2 3 4 3 5 3 4 8 10 12 16 17 20 24 22 23
22 34 27 33 35 38 37 46 46 44 45 44 44 42 39 36 36 34 30 27 24 22 19 15 12 8 5 4 4 4 5 6 8 9 15 14 19 20 21 21 23 22 20
12 14 20 29 31 38 43 42 49 47 44 43 45 44 40 37 37 35 32 28 24 23 20 16 13 9 6 5 6 7 7 7 9 10 16 22 26 27 25 23 21 19 19
Wind_Direction
180 172 157 148 147 146 147 148 154 167 176 177 172 186 171 149 118 47 336 318 335 66 106 107 90 113 115 131 120 39 112 359 334 332 334 354 27 19 16 28 74 77 217
175 167 155 147 145 143 141 139 139 148 166 182 184 185 161 143 126 57 73 109 105 114 125 126 119 103 116 122 77 56 52 33 28 66 73 52 43 32 18 24 32 49 16
174 162 155 149 146 142 139 135 133 140 157 165 144 132 136 136 107 74 88 92 88 90 115 141 124 134 151 131 172 289 2 60 102 92 62 36 40 31 17 18 37 71 49
179 163 158 153 146 143 139 133 123 125 124 136 133 143 159 147 110 99 100 94 90 94 105 133 146 160 192 219 39 48 80 97 93 79 63 23 18 23 20 23 32 43 57
177 166 163 157 149 147 139 126 119 129 125 134 150 160 170 161 140 117 101 95 93 93 97 105 111 109 104 95 88 82 91 97 89 64 56 19 24 19 11 44 44 50 43
170 173 168 161 157 151 144 136 129 137 136 139 147 151 149 145 142 125 108 100 97 95 96 98 99 100 97 90 85 82 87 94 83 64 64 14 9 351 350 28 20 9 18
179 173 172 172 168 161 151 146 140 141 147 145 150 146 143 144 142 131 117 106 100 96 93 94 93 90 87 84 77 74 78 100 110 113 109 331 345 323 330 8 292 285 319
191 177 184 185 180 168 163 157 150 148 151 151 150 154 153 159 152 152 135 116 103 97 95 95 91 84 75 64 56 52 67 105 118 135 178 273 286 322 335 317 291 289 290
200 196 201 198 192 180 171 170 161 158 161 159 159 157 160 160 160 163 151 134 120 112 110 106 95 80 64 49 49 59 88 116 170 244 265 257 286 308 314 312 349 7 272
201 209 219 204 196 188 183 180 177 174 168 166 167 160 162 161 150 155 159 150 137 129 127 119 97 75 62 77 73 60 129 155 250 275 279 283 296 302 292 305 319 324 340
209 219 214 206 201 195 192 187 187 186 176 176 172 170 171 176 175 171 169 167 159 150 148 139 123 104 74 44 49 24 316 294 282 271 276 286 296 297 291 303 277 300 319
207 219 219 211 210 206 203 200 196 196 186 183 183 183 184 193 193 192 190 186 183 177 177 185 210 261 301 319 321 313 303 283 280 280 286 291 297 265 237 267 297 311 309
205 220 221 220 210 210 213 207 207 202 198 192 185 185 192 195 198 194 194 203 204 203 192 199 206 246 291 300 295 301 301 291 286 281 285 294 268 234 238 300 316 311 319
214 209 217 224 219 224 229 214 214 214 206 204 194 182 197 205 208 215 216 207 209 197 208 234 252 279 293 299 300 296 297 294 294 289 289 298 281 247 279 309 320 327 326
217 217 207 211 221 220 229 223 219 221 202 198 204 194 212 215 222 217 206 206 206 225 224 239 265 282 286 293 296 301 298 283 285 287 293 302 293 270 284 306 313 315 314
225 221 217 209 212 219 222 225 228 219 203 199 211 207 223 224 205 204 200 208 218 236 234 253 261 269 280 288 294 300 301 289 288 284 286 293 290 276 287 294 302 307 313
224 226 217 217 211 216 221 219 217 208 211 201 208 209 222 222 201 204 208 218 236 232 236 253 256 260 278 290 297 304 304 302 281 282 287 289 291 292 297 304 306 304 308
239 234 222 220 218 224 224 220 217 212 203 203 208 211 212 221 214 214 218 228 239 237 244 258 250 260 272 288 302 306 311 303 282 278 285 297 299 304 307 306 304 308 307
234 237 230 227 227 229 227 224 221 216 208 205 210 211 212 221 216 220 226 236 244 232 246 251 246 248 265 304 309 305 307 310 276 269 278 290 309 312 317 314 308 312 313
240 237 239 236 231 227 228 223 219 220 215 211 214 216 214 219 213 217 228 232 228 236 249 241 235 236 258 311 321 321 315 11 345 298 284 291 304 310 313 315 320 323 319
240 239 242 241 227 225 220 221 215 216 215 215 215 219 222 225 216 222 227 230 219 238 245 230 222 219 246 331 355 327 253 302 324 323 283 288 303 305 313 318 322 319 320
247 238 234 239 242 226 220 220 222 222 214 215 214 217 223 225 225 225 225 227 220 232 228 219 213 209 218 342 13 24 303 277 286 286 288 295 284 293 304 311 309 313 317
252 249 244 240 241 231 223 218 224 219 218 214 216 218 221 224 226 221 218 226 225 228 218 215 210 209 220 312 10 27 338 272 310 265 252 258 275 282 293 296 303 308 311
248 251 248 246 244 236 231 225 223 222 216 220 222 221 218 223 219 218 215 215 218 218 210 212 215 219 229 283 330 337 324 289 293 279 256 256 268 285 292 293 299 304 306
255 248 252 245 244 241 237 231 226 224 223 226 226 222 216 218 216 211 214 213 212 208 208 212 216 227 246 276 307 317 310 297 284 276 289 279 287 293 296 303 306 309 303
239 251 255 247 243 240 238 232 226 224 226 226 225 217 211 216 214 209 212 213 211 209 209 212 216 225 249 280 302 309 304 295 285 275 281 294 299 307 309 311 313 313 311